• In Belgien
  • Länderverzeichnis
  • Für 7 Tage
  • Wassertemperatur
  • Satellitenkarten
  • Wetterkarte
  • Widgets
  • user-avatar
    Anmelden

    Stündliche Wetter Korfu

    Heute, 21 Oktober, Samstag

    Zeit Temperatur Niederschläge Wind Luftdruck Luftfeuchtigkeit
    00:00 +19°C° 0 mm 1 m/S 761 mmHg 89%
    01:00 +19°C° 0 mm 1 m/S 761 mmHg 89%
    02:00 +18°C° 0 mm 2 m/S 761 mmHg 88%
    03:00 +17°C° 0 mm 2 m/S 761 mmHg 88%
    04:00 +17°C° 0 mm 2 m/S 761 mmHg 87%
    05:00 +17°C° 0 mm 2 m/S 761 mmHg 84%
    06:00 +18°C° 0 mm 2 m/S 761 mmHg 81%
    07:00 +19°C° 0 mm 2 m/S 761 mmHg 74%
    08:00 +20°C° 0 mm 2 m/S 761 mmHg 66%
    09:00 +22°C° 0 mm 3 m/S 761 mmHg 59%
    10:00 +25°C° 0 mm 3 m/S 761 mmHg 52%
    11:00 +26°C° 0 mm 3 m/S 761 mmHg 50%
    12:00 +26°C° 0 mm 4 m/S 760 mmHg 48%
    13:00 +27°C° 0 mm 4 m/S 760 mmHg 45%
    14:00 +26°C° 0 mm 4 m/S 760 mmHg 50%
    15:00 +26°C° 0 mm 5 m/S 760 mmHg 54%
    16:00 +25°C° 0 mm 5 m/S 760 mmHg 59%
    17:00 +23°C° 0 mm 5 m/S 760 mmHg 65%
    18:00 +21°C° 0 mm 5 m/S 760 mmHg 72%
    19:00 +20°C° 0 mm 5 m/S 760 mmHg 78%
    20:00 +19°C° 0 mm 5 m/S 760 mmHg 78%
    21:00 +19°C° 0 mm 5 m/S 760 mmHg 79%
    22:00 +19°C° 0 mm 5 m/S 760 mmHg 79%
    23:00 +18°C° 0 mm 4 m/S 760 mmHg 78%

    Morgen, 22 Oktober, Sonntag

    Zeit Temperatur Niederschläge Wind Luftdruck Luftfeuchtigkeit
    00:00 +18°C° 0 mm 4 m/S 760 mmHg 78%
    01:00 +18°C° 0 mm 4 m/S 760 mmHg 77%
    02:00 +16°C° 0 mm 5 m/S 759 mmHg 76%
    03:00 +16°C° 0 mm 5 m/S 759 mmHg 74%
    04:00 +16°C° 0 mm 5 m/S 759 mmHg 73%
    05:00 +16°C° 0 mm 5 m/S 759 mmHg 70%
    06:00 +16°C° 0 mm 5 m/S 759 mmHg 67%
    07:00 +17°C° 0 mm 4 m/S 759 mmHg 64%
    08:00 +20°C° 0 mm 4 m/S 759 mmHg 56%
    09:00 +22°C° 0 mm 4 m/S 759 mmHg 49%
    10:00 +25°C° 0 mm 3 m/S 759 mmHg 41%
    11:00 +26°C° 0 mm 4 m/S 758 mmHg 41%
    12:00 +26°C° 0 mm 4 m/S 758 mmHg 41%
    13:00 +27°C° 0 mm 4 m/S 758 mmHg 40%
    14:00 +26°C° 0 mm 4 m/S 757 mmHg 45%
    15:00 +26°C° 0 mm 4 m/S 757 mmHg 50%
    16:00 +25°C° 0 mm 4 m/S 756 mmHg 55%
    17:00 +24°C° 0 mm 3 m/S 757 mmHg 61%
    18:00 +21°C° 0 mm 3 m/S 757 mmHg 68%
    19:00 +20°C° 0 mm 2 m/S 757 mmHg 74%
    20:00 +19°C° 0 mm 2 m/S 756 mmHg 76%
    21:00 +19°C° 0 mm 2 m/S 756 mmHg 77%
    22:00 +19°C° 0 mm 2 m/S 756 mmHg 78%
    23:00 +18°C° 0 mm 3 m/S 756 mmHg 80%

    übermorgen, 23 Oktober, Montag

    Zeit Temperatur Niederschläge Wind Luftdruck Luftfeuchtigkeit
    00:00 +18°C° 0 mm 3 m/S 755 mmHg 82%
    01:00 +18°C° 0 mm 4 m/S 755 mmHg 85%
    02:00 +18°C° 0,5 mm 4 m/S 754 mmHg 86%
    03:00 +16°C° 0,5 mm 5 m/S 754 mmHg 87%
    04:00 +16°C° 0,5 mm 5 m/S 753 mmHg 88%
    05:00 +16°C° 1,8 mm 5 m/S 753 mmHg 87%
    06:00 +17°C° 1,8 mm 5 m/S 753 mmHg 86%
    07:00 +18°C° 1,8 mm 4 m/S 752 mmHg 85%
    08:00 +19°C° 0,6 mm 4 m/S 752 mmHg 83%
    09:00 +19°C° 0,6 mm 4 m/S 752 mmHg 80%
    10:00 +20°C° 0,6 mm 4 m/S 752 mmHg 78%
    11:00 +20°C° 0,4 mm 4 m/S 751 mmHg 71%
    12:00 +21°C° 0,4 mm 3 m/S 751 mmHg 63%
    13:00 +21°C° 0,4 mm 3 m/S 750 mmHg 56%
    14:00 +21°C° 0,7 mm 3 m/S 750 mmHg 59%
    15:00 +20°C° 0,7 mm 2 m/S 749 mmHg 62%
    16:00 +19°C° 0,7 mm 2 m/S 749 mmHg 65%
    17:00 +18°C° 0,5 mm 2 m/S 749 mmHg 69%
    18:00 +18°C° 0,5 mm 2 m/S 749 mmHg 73%
    19:00 +17°C° 0,5 mm 3 m/S 749 mmHg 78%
    20:00 +16°C° 0,4 mm 3 m/S 749 mmHg 78%
    21:00 +15°C° 0,4 mm 4 m/S 749 mmHg 77%
    22:00 +15°C° 0,4 mm 4 m/S 749 mmHg 77%
    23:00 +14°C° 0,4 mm 5 m/S 749 mmHg 78%

    24 Oktober, Dienstag

    Zeit Temperatur Niederschläge Wind Luftdruck Luftfeuchtigkeit
    00:00 +14°C° 0,4 mm 5 m/S 749 mmHg 79%
    01:00 +14°C° 0,4 mm 5 m/S 749 mmHg 80%
    02:00 +13°C° 0,2 mm 5 m/S 748 mmHg 80%
    03:00 +13°C° 0,2 mm 5 m/S 748 mmHg 81%
    04:00 +13°C° 0,2 mm 5 m/S 748 mmHg 81%
    05:00 +13°C° 0,2 mm 5 m/S 748 mmHg 80%
    06:00 +13°C° 0,2 mm 6 m/S 748 mmHg 79%
    07:00 +13°C° 0,2 mm 6 m/S 748 mmHg 78%
    08:00 +15°C° 0,1 mm 6 m/S 749 mmHg 70%
    09:00 +16°C° 0,1 mm 6 m/S 749 mmHg 62%
    10:00 +19°C° 0,1 mm 6 m/S 749 mmHg 54%
    11:00 +19°C° 0 mm 6 m/S 749 mmHg 53%
    12:00 +20°C° 0 mm 7 m/S 749 mmHg 51%
    13:00 +20°C° 0 mm 7 m/S 748 mmHg 49%
    14:00 +20°C° 0,1 mm 8 m/S 749 mmHg 52%
    15:00 +18°C° 0,1 mm 8 m/S 749 mmHg 56%
    16:00 +18°C° 0,1 mm 8 m/S 749 mmHg 59%
    17:00 +17°C° 0,1 mm 8 m/S 749 mmHg 62%
    18:00 +16°C° 0,1 mm 7 m/S 750 mmHg 65%
    19:00 +15°C° 0,1 mm 7 m/S 750 mmHg 68%
    20:00 +14°C° 0 mm 7 m/S 750 mmHg 70%
    21:00 +14°C° 0 mm 6 m/S 751 mmHg 71%
    22:00 +14°C° 0 mm 6 m/S 751 mmHg 72%
    23:00 +13°C° 0 mm 5 m/S 751 mmHg 72%

    25 Oktober, Mittwoch

    Zeit Temperatur Niederschläge Wind Luftdruck Luftfeuchtigkeit
    00:00 +13°C° 0 mm 5 m/S 751 mmHg 73%
    01:00 +13°C° 0 mm 5 m/S 752 mmHg 73%
    02:00 +13°C° 0 mm 4 m/S 752 mmHg 73%
    03:00 +13°C° 0 mm 4 m/S 752 mmHg 73%
    04:00 +13°C° 0 mm 4 m/S 752 mmHg 72%
    05:00 +13°C° 0 mm 4 m/S 753 mmHg 72%
    06:00 +13°C° 0 mm 4 m/S 753 mmHg 71%
    07:00 +14°C° 0 mm 4 m/S 753 mmHg 71%
    08:00 +15°C° 0 mm 4 m/S 754 mmHg 65%
    09:00 +18°C° 0 mm 3 m/S 755 mmHg 60%
    10:00 +20°C° 0 mm 3 m/S 755 mmHg 55%
    11:00 +20°C° 0 mm 3 m/S 755 mmHg 53%
    12:00 +21°C° 0 mm 3 m/S 756 mmHg 51%
    13:00 +23°C° 0 mm 2 m/S 756 mmHg 49%
    14:00 +21°C° 0 mm 2 m/S 756 mmHg 52%
    15:00 +21°C° 0 mm 2 m/S 757 mmHg 54%
    16:00 +20°C° 0 mm 2 m/S 757 mmHg 56%
    17:00 +19°C° 0 mm 2 m/S 758 mmHg 59%
    18:00 +18°C° 0 mm 2 m/S 759 mmHg 62%
    19:00 +17°C° 0 mm 3 m/S 760 mmHg 65%
    20:00 +16°C° 0 mm 3 m/S 760 mmHg 67%
    21:00 +16°C° 0 mm 3 m/S 761 mmHg 69%
    22:00 +16°C° 0 mm 3 m/S 761 mmHg 71%
    23:00 +14°C° 0 mm 3 m/S 762 mmHg 71%

    26 Oktober, Donnerstag

    Zeit Temperatur Niederschläge Wind Luftdruck Luftfeuchtigkeit
    00:00 +14°C° 0 mm 3 m/S 762 mmHg 71%
    01:00 +14°C° 0 mm 3 m/S 762 mmHg 71%
    02:00 +14°C° 0 mm 3 m/S 763 mmHg 72%
    03:00 +13°C° 0 mm 3 m/S 763 mmHg 72%
    04:00 +13°C° 0 mm 3 m/S 763 mmHg 72%
    05:00 +13°C° 0 mm 3 m/S 764 mmHg 71%
    06:00 +14°C° 0 mm 3 m/S 764 mmHg 70%
    07:00 +14°C° 0 mm 3 m/S 764 mmHg 70%
    08:00 +17°C° 0 mm 2 m/S 765 mmHg 62%
    09:00 +19°C° 0 mm 2 m/S 765 mmHg 54%
    10:00 +21°C° 0 mm 2 m/S 765 mmHg 47%
    11:00 +23°C° 0 mm 2 m/S 765 mmHg 45%
    12:00 +24°C° 0 mm 2 m/S 764 mmHg 43%
    13:00 +25°C° 0 mm 2 m/S 764 mmHg 41%
    14:00 +24°C° 0 mm 3 m/S 764 mmHg 44%
    15:00 +23°C° 0 mm 4 m/S 764 mmHg 48%
    16:00 +22°C° 0 mm 4 m/S 763 mmHg 52%
    17:00 +21°C° 0 mm 4 m/S 764 mmHg 55%
    18:00 +19°C° 0 mm 4 m/S 764 mmHg 58%
    19:00 +18°C° 0 mm 4 m/S 764 mmHg 61%
    20:00 +18°C° 0 mm 4 m/S 764 mmHg 60%
    21:00 +17°C° 0 mm 4 m/S 764 mmHg 60%
    22:00 +17°C° 0 mm 4 m/S 764 mmHg 59%
    23:00 +15°C° 0 mm 4 m/S 764 mmHg 59%
    Mehr zeigen